DAL6299 KLGA-KDCA

Flight info

Callsign DAL6299
Flight time 0h 39m
Altitude 24000
Route BIGGY Q75 MXE CLIPR3
Aircraft B38M/M-SDE1FGHILORVWXY/HB1

Departure

Time 2026-05-04 10:31
Airport LaGuardia Airport (KLGA)

Arrival

Time 2026-05-04 11:10
Airport Ronald Reagan Washington National Airport (KDCA)
Time Latitude Longitude Altitude Speed Heading
2026-05-04 10:11 40.77090 -73.86268 12 ft 0 kts 291°
2026-05-04 10:25 40.77060 -73.86219 11 ft 2 kts
2026-05-04 10:25 40.77050 -73.86224 12 ft 0 kts 35°
2026-05-04 10:25 40.77044 -73.86230 12 ft 1 kts 39°
2026-05-04 10:25 40.77044 -73.86231 12 ft 0 kts 39°
2026-05-04 10:27 40.77046 -73.86228 12 ft 3 kts 39°
2026-05-04 10:27 40.77081 -73.86189 11 ft 9 kts 41°
2026-05-04 10:27 40.77126 -73.86124 9 ft 9 kts 82°
2026-05-04 10:28 40.77103 -73.86046 9 ft 8 kts 121°
2026-05-04 10:28 40.77074 -73.85985 9 ft 7 kts 122°
2026-05-04 10:28 40.77060 -73.85933 9 ft 5 kts 78°
2026-05-04 10:28 40.77086 -73.85890 9 ft 8 kts 44°
2026-05-04 10:29 40.77126 -73.85835 9 ft 7 kts 47°
2026-05-04 10:29 40.77139 -73.85818 9 ft 0 kts 47°
2026-05-04 10:29 40.77145 -73.85808 9 ft 6 kts 47°
2026-05-04 10:30 40.77210 -73.85757 9 ft 12 kts 355°
2026-05-04 10:30 40.77271 -73.85851 9 ft 27 kts 301°
2026-05-04 10:30 40.77513 -73.86361 9 ft 104 kts 302°
2026-05-04 10:30 40.78028 -73.87438 42 ft 168 kts 297°
2026-05-04 10:31 40.78517 -73.88812 858 ft 164 kts 279°
2026-05-04 10:31 40.78613 -73.90273 1726 ft 164 kts 265°
2026-05-04 10:32 40.75316 -74.00637 5679 ft 247 kts 248°
2026-05-04 10:33 40.74598 -74.02702 6588 ft 252 kts 248°
2026-05-04 10:33 40.73872 -74.04782 7493 ft 256 kts 248°
2026-05-04 10:33 40.73123 -74.06932 8382 ft 260 kts 248°
2026-05-04 10:33 40.72374 -74.09083 9263 ft 263 kts 248°
2026-05-04 10:34 40.71619 -74.11250 10133 ft 265 kts 248°
2026-05-04 10:34 40.70829 -74.13525 10589 ft 284 kts 248°
2026-05-04 10:34 40.69978 -74.15984 10795 ft 309 kts 247°
2026-05-04 10:34 40.69062 -74.18630 11326 ft 321 kts 247°
2026-05-04 10:35 40.68142 -74.21278 12063 ft 325 kts 247°
2026-05-04 10:35 40.67195 -74.24004 12818 ft 329 kts 247°
2026-05-04 10:35 40.66243 -74.26744 13557 ft 332 kts 248°
2026-05-04 10:35 40.65293 -74.29482 14222 ft 336 kts 248°
2026-05-04 10:36 40.64311 -74.32316 14947 ft 338 kts 248°
2026-05-04 10:36 40.63344 -74.35107 15606 ft 341 kts 248°
2026-05-04 10:36 40.62360 -74.37946 16257 ft 344 kts 249°
2026-05-04 10:36 40.61362 -74.40833 16903 ft 347 kts 249°
2026-05-04 10:37 40.60366 -74.43713 17524 ft 349 kts 249°
2026-05-04 10:37 40.59363 -74.46613 18159 ft 351 kts 249°
2026-05-04 10:37 40.58342 -74.49571 18765 ft 353 kts 249°
2026-05-04 10:37 40.57332 -74.52500 19317 ft 356 kts 249°
2026-05-04 10:39 40.51079 -74.70686 22329 ft 373 kts 249°
2026-05-04 10:39 40.50012 -74.73786 22801 ft 376 kts 249°
2026-05-04 10:39 40.48933 -74.76929 23249 ft 379 kts 249°
2026-05-04 10:40 40.47853 -74.80075 23669 ft 382 kts 249°
2026-05-04 10:40 40.46764 -74.83250 23984 ft 385 kts 249°
2026-05-04 10:40 40.45657 -74.86483 24026 ft 392 kts 249°
2026-05-04 10:40 40.44523 -74.89768 24027 ft 400 kts 248°
2026-05-04 10:41 40.43200 -74.93036 24026 ft 409 kts 243°
2026-05-04 10:41 40.41610 -74.96158 24024 ft 415 kts 237°
2026-05-04 10:41 40.39838 -74.99127 24025 ft 418 kts 235°
2026-05-04 10:41 40.37978 -75.02042 24026 ft 417 kts 234°
2026-05-04 10:42 40.36067 -75.04941 24027 ft 418 kts 233°
2026-05-04 10:42 40.34172 -75.07758 24027 ft 418 kts 232°
2026-05-04 10:42 40.32231 -75.10602 24028 ft 419 kts 232°
2026-05-04 10:42 40.30287 -75.13416 24028 ft 419 kts 232°
2026-05-04 10:43 40.28313 -75.16251 24030 ft 419 kts 232°
2026-05-04 10:44 40.14466 -75.35778 24052 ft 420 kts 231°
2026-05-04 10:45 40.12466 -75.38568 24051 ft 420 kts 231°
2026-05-04 10:45 40.10471 -75.41332 24052 ft 420 kts 231°
2026-05-04 10:45 40.08454 -75.44120 24052 ft 421 kts 231°
2026-05-04 10:45 40.06456 -75.46883 24051 ft 421 kts 231°
2026-05-04 10:46 40.04458 -75.49645 24050 ft 421 kts 231°
2026-05-04 10:46 40.02451 -75.52422 24050 ft 421 kts 231°
2026-05-04 10:46 40.00450 -75.55189 24050 ft 422 kts 231°
2026-05-04 10:46 39.98432 -75.57977 24045 ft 421 kts 231°
2026-05-04 10:47 39.96440 -75.60729 24047 ft 419 kts 231°
2026-05-04 10:47 39.94446 -75.63485 24045 ft 419 kts 232°
2026-05-04 10:47 39.92595 -75.66367 24044 ft 418 kts 236°
2026-05-04 10:47 39.90845 -75.69430 24045 ft 418 kts 237°
2026-05-04 10:49 39.79303 -75.91129 24042 ft 417 kts 239°
2026-05-04 10:49 39.77693 -75.94194 23782 ft 405 kts 239°
2026-05-04 10:50 39.76135 -75.97158 23099 ft 398 kts 239°
2026-05-04 10:51 39.65306 -76.17713 20556 ft 410 kts 239°
2026-05-04 10:52 39.63695 -76.20758 20302 ft 407 kts 239°
2026-05-04 10:52 39.62100 -76.23776 20050 ft 405 kts 239°
2026-05-04 10:52 39.60477 -76.26698 19797 ft 406 kts 233°
2026-05-04 10:54 39.44723 -76.42192 18053 ft 403 kts 219°
2026-05-04 10:54 39.42404 -76.44236 17802 ft 402 kts 219°
2026-05-04 10:56 39.26361 -76.58167 16050 ft 394 kts 219°
2026-05-04 10:56 39.24106 -76.60111 15800 ft 392 kts 219°
2026-05-04 10:56 39.21866 -76.62042 15554 ft 391 kts 219°
2026-05-04 10:57 39.19607 -76.63989 15302 ft 387 kts 219°
2026-05-04 10:57 39.17416 -76.65927 15049 ft 383 kts 221°
2026-05-04 10:57 39.15401 -76.68095 14686 ft 371 kts 226°
2026-05-04 10:57 39.13575 -76.70238 14295 ft 341 kts 227°
2026-05-04 10:58 39.11888 -76.72252 13925 ft 317 kts 227°
2026-05-04 10:58 39.10334 -76.74109 13552 ft 299 kts 228°
2026-05-04 10:58 39.08847 -76.75884 13178 ft 285 kts 228°
2026-05-04 10:58 39.07410 -76.77596 12769 ft 279 kts 228°
2026-05-04 10:59 39.06002 -76.79273 12317 ft 276 kts 228°
2026-05-04 10:59 39.04601 -76.80936 11867 ft 273 kts 228°
2026-05-04 10:59 39.03227 -76.82563 11442 ft 270 kts 227°
2026-05-04 10:59 39.01859 -76.84180 11063 ft 265 kts 227°
2026-05-04 11:00 39.00509 -76.85792 10629 ft 263 kts 230°
2026-05-04 11:01 38.97721 -77.00374 7478 ft 245 kts 283°
2026-05-04 11:02 38.98275 -77.02399 7026 ft 240 kts 292°
2026-05-04 11:02 38.99102 -77.04256 6572 ft 237 kts 303°
2026-05-04 11:05 38.95530 -77.14465 2555 ft 186 kts 147°
2026-05-04 11:06 38.94579 -77.13328 2484 ft 188 kts 140°
2026-05-04 11:06 38.93642 -77.12169 2296 ft 184 kts 144°
2026-05-04 11:06 38.92673 -77.11222 2033 ft 167 kts 152°
2026-05-04 11:06 38.91773 -77.10427 1820 ft 152 kts 146°
2026-05-04 11:08 38.87251 -77.03946 236 ft 134 kts 176°
2026-05-04 11:10 38.84915 -77.03954 22 ft 9 kts 346°
2026-05-04 11:12 38.85319 -77.04097 24 ft 5 kts 254°
2026-05-04 11:12 38.85308 -77.04144 25 ft 4 kts 251°
2026-05-04 11:12 38.85288 -77.04170 26 ft 4 kts 194°
2026-05-04 11:12 38.85256 -77.04162 26 ft 2 kts 162°
2026-05-04 11:13 38.85248 -77.04158 26 ft 0 kts 162°
2026-05-04 11:13 38.85247 -77.04158 26 ft 0 kts 162°